Home > Weather > Toowoomba > Past weeks

Flag for Australia Past Weather in Toowoomba, Queensland, Australia — Yesterday and Last 2 Weeks

Now
44 °F

Quite cool.


Feels Like: 41 °F
Forecast: 38 / 64 °F
Wind: 6 mph from West

Location: Oakey Aerodrome

Current Time: Aug 27, 2016 at 9:58:20 PM

Latest Report: Aug 27, 2016 at 9:00 PM


Visibility: N/A

Pressure: 30.21 "Hg (28.08 "Hg at 597m altitude)

Humidity: 70%

Dew Point: 35 °F

Location of ToowoombaLocation

Past Weather in Toowoomba — Graph

°F

Toowoomba Temperature Yesterday

Maximum temperature yesterday: 58 °F (at 3:00 PM)
Minimum temperature yesterday: 32 °F (at 6:00 AM)
Average temperature yesterday: 46 °F

High & Low Weather Summary for the Past Weeks

 TemperatureHumidityPressure
High74 °F (Aug 22, 3:00 PM)100% (Aug 13, 7:00 AM)30.44 "Hg (Aug 13, 7:00 AM)
Low29 °F (Aug 21, 6:00 AM)9% (Aug 21, 3:00 PM)29.76 "Hg (Aug 24, 1:00 PM)
Average54 °F71%30.13 "Hg
* Reported Aug 12 7:00 PM — Aug 27 7:00 PM, Toowoomba, Weather by CustomWeather, © 2016

Note: Actual official high and low records may vary slightly from our data, if they occured in-between our weather recording intervals... More about our weather records

Advertising

Toowoomba Weather History for the Previous 24 Hours

Scroll right to see more
 ConditionsComfort  
Time TempWeatherWind HumidityBarometerVisibility
7:00 PM
Sat, Aug 27
49 °FCool.6 mph52%30.17 "HgN/A
6:00 PM52 °FCool.8 mph44%30.15 "HgN/A
4:00 PM61 °FRefreshingly cool.13 mph30%30.11 "HgN/A
3:00 PM61 °FRefreshingly cool.13 mph29%30.11 "HgN/A
1:00 PM60 °FRefreshingly cool.14 mph35%30.13 "HgN/A
12:00 PM58 °FPassing clouds.7 mph40%30.16 "HgN/A
10:00 AM53 °FCool.10 mph57%30.19 "HgN/A
9:00 AM47 °FCool.7 mph67%30.19 "HgN/A
7:00 AM35 °FChilly.3 mph99%30.16 "HgN/A
6:00 AM32 °FChilly.5 mph95%30.14 "HgN/A
4:00 AM34 °FChilly.7 mph94%30.11 "HgN/A
3:00 AM34 °FChilly.1 mph90%30.10 "HgN/A
1:00 AM39 °FChilly.10 mph86%30.10 "HgN/A
12:00 AM41 °FQuite cool.8 mph76%30.12 "HgN/A
10:00 PM
Fri, Aug 26
46 °FCool.10 mph66%30.11 "HgN/A
9:00 PM47 °FCool.14 mph61%30.11 "HgN/A
Weather by CustomWeather, © 2016

See weather overviewHow to use our weather pages